Year,Month,Day,Hour,Minute,Value (Times are PST for temperature in C)
2024,04,27,12,05,10.80
2024,04,27,12,06,10.80
2024,04,27,12,07,10.80
2024,04,27,12,08,10.70
2024,04,27,12,09,10.70
2024,04,27,12,10,10.60
2024,04,27,12,11,10.60
2024,04,27,12,12,10.50
2024,04,27,12,13,10.40
2024,04,27,12,14,10.30
2024,04,27,12,15,10.20
2024,04,27,12,16,10.20
2024,04,27,12,17,10.20
2024,04,27,12,18,10.10
2024,04,27,12,19,10.00
2024,04,27,12,20,10.00
2024,04,27,12,21,9.90
2024,04,27,12,22,9.80
2024,04,27,12,23,9.70
2024,04,27,12,24,9.70
2024,04,27,12,25,9.60
2024,04,27,12,26,9.50
2024,04,27,12,27,9.50
2024,04,27,12,28,9.50
2024,04,27,12,29,9.50
2024,04,27,12,30,9.50
2024,04,27,12,31,9.50
2024,04,27,12,32,9.40
2024,04,27,12,33,9.40
2024,04,27,12,34,9.40
2024,04,27,12,35,9.40
2024,04,27,12,36,9.30
2024,04,27,12,37,9.30
2024,04,27,12,38,9.20
2024,04,27,12,39,9.20
2024,04,27,12,40,9.20
2024,04,27,12,41,9.30
2024,04,27,12,42,9.30
2024,04,27,12,43,9.30
2024,04,27,12,44,9.30
2024,04,27,12,45,9.30
2024,04,27,12,46,9.30
2024,04,27,12,47,9.30
2024,04,27,12,48,9.30
2024,04,27,12,49,9.30
2024,04,27,12,50,9.30
2024,04,27,12,51,9.40
2024,04,27,12,52,9.30
2024,04,27,12,53,9.30
2024,04,27,12,54,9.40
2024,04,27,12,55,9.40
2024,04,27,12,56,9.40
2024,04,27,12,57,9.50
2024,04,27,12,58,9.50
2024,04,27,12,59,9.50
2024,04,27,13,00,9.50
2024,04,27,13,01,9.60
2024,04,27,13,02,9.60
2024,04,27,13,03,9.60
2024,04,27,13,04,9.60
2024,04,27,13,05,9.60
2024,04,27,13,06,9.60
2024,04,27,13,07,9.60
2024,04,27,13,08,9.60
2024,04,27,13,09,9.50
2024,04,27,13,10,9.40
2024,04,27,13,11,9.30
2024,04,27,13,12,9.30
2024,04,27,13,13,9.30
2024,04,27,13,14,9.30
2024,04,27,13,15,9.30
2024,04,27,13,16,9.30
2024,04,27,13,17,9.30
2024,04,27,13,18,9.30
2024,04,27,13,19,9.30
2024,04,27,13,20,9.40
2024,04,27,13,21,9.50
2024,04,27,13,22,9.50
2024,04,27,13,23,9.40
2024,04,27,13,24,9.40
2024,04,27,13,25,9.40
2024,04,27,13,26,9.40
2024,04,27,13,27,9.40
2024,04,27,13,28,9.40
2024,04,27,13,29,9.40
2024,04,27,13,30,9.40
2024,04,27,13,31,9.40
2024,04,27,13,32,9.40
2024,04,27,13,33,9.40
2024,04,27,13,34,9.40
2024,04,27,13,35,9.30
2024,04,27,13,36,9.40
2024,04,27,13,37,9.40
2024,04,27,13,38,9.40
2024,04,27,13,39,9.40
2024,04,27,13,40,9.40
2024,04,27,13,41,9.40
2024,04,27,13,42,9.50
2024,04,27,13,43,9.50
2024,04,27,13,44,9.50
2024,04,27,13,45,9.60
2024,04,27,13,46,9.60
2024,04,27,13,47,9.60
2024,04,27,13,48,9.60
2024,04,27,13,49,9.60
2024,04,27,13,50,9.60
2024,04,27,13,51,9.60
2024,04,27,13,52,9.60
2024,04,27,13,53,9.60
2024,04,27,13,54,9.60
2024,04,27,13,55,9.60
2024,04,27,13,56,9.70
2024,04,27,13,57,9.70
2024,04,27,13,58,9.70
2024,04,27,13,59,9.70
2024,04,27,14,00,9.70
2024,04,27,14,01,9.70
2024,04,27,14,02,9.80
2024,04,27,14,03,9.80
2024,04,27,14,04,9.90
2024,04,27,14,05,9.90
2024,04,27,14,06,9.90
2024,04,27,14,07,9.90
2024,04,27,14,08,9.80
2024,04,27,14,09,9.80
2024,04,27,14,10,9.80
2024,04,27,14,11,9.70
2024,04,27,14,12,9.70
2024,04,27,14,13,9.70
2024,04,27,14,14,9.70
2024,04,27,14,15,9.70
2024,04,27,14,16,9.70
2024,04,27,14,17,9.80
2024,04,27,14,18,9.80
2024,04,27,14,19,9.80
2024,04,27,14,20,9.80
2024,04,27,14,21,9.80
2024,04,27,14,22,9.90
2024,04,27,14,23,10.00
2024,04,27,14,24,10.00
2024,04,27,14,25,10.00
2024,04,27,14,26,10.10
2024,04,27,14,27,10.10
2024,04,27,14,28,10.10
2024,04,27,14,29,10.10
2024,04,27,14,30,10.10
2024,04,27,14,31,10.10
2024,04,27,14,32,10.10
2024,04,27,14,33,10.20
2024,04,27,14,34,10.20
2024,04,27,14,35,10.30
2024,04,27,14,36,10.30
2024,04,27,14,37,10.30
2024,04,27,14,38,10.40
2024,04,27,14,39,10.40
2024,04,27,14,40,10.40
2024,04,27,14,41,10.40
2024,04,27,14,42,10.40
2024,04,27,14,43,10.40
2024,04,27,14,44,10.30
2024,04,27,14,45,10.30
2024,04,27,14,46,10.30
2024,04,27,14,47,10.30
2024,04,27,14,48,10.30
2024,04,27,14,49,10.30
2024,04,27,14,50,10.40
2024,04,27,14,51,10.40
2024,04,27,14,52,10.40
2024,04,27,14,53,10.40
2024,04,27,14,54,10.50
2024,04,27,14,55,10.50
2024,04,27,14,56,10.40
2024,04,27,14,57,10.40
2024,04,27,14,58,10.40
2024,04,27,14,59,10.40
2024,04,27,15,00,10.40
2024,04,27,15,01,10.40
2024,04,27,15,02,10.30
2024,04,27,15,03,10.30
2024,04,27,15,04,10.30
2024,04,27,15,05,10.20
2024,04,27,15,06,10.20
2024,04,27,15,07,10.20
2024,04,27,15,08,10.20
2024,04,27,15,09,10.20
2024,04,27,15,10,10.20
2024,04,27,15,11,10.20
2024,04,27,15,12,10.20
2024,04,27,15,13,10.20
2024,04,27,15,14,10.20
2024,04,27,15,15,10.20
2024,04,27,15,16,10.20
2024,04,27,15,17,10.30
2024,04,27,15,18,10.30
2024,04,27,15,19,10.40
2024,04,27,15,20,10.40
2024,04,27,15,21,10.50
2024,04,27,15,22,10.60
2024,04,27,15,23,10.60
2024,04,27,15,24,10.60
2024,04,27,15,25,10.60
2024,04,27,15,26,10.60
2024,04,27,15,27,10.60
2024,04,27,15,28,10.60
2024,04,27,15,29,10.60
2024,04,27,15,30,10.60
2024,04,27,15,31,10.60
2024,04,27,15,32,10.60
2024,04,27,15,33,10.60
2024,04,27,15,34,10.60
2024,04,27,15,35,10.60
2024,04,27,15,36,10.60
2024,04,27,15,37,10.60
2024,04,27,15,38,10.60
2024,04,27,15,39,10.60
2024,04,27,15,40,10.60
2024,04,27,15,41,10.50
2024,04,27,15,42,10.50
2024,04,27,15,43,10.50
2024,04,27,15,44,10.40
2024,04,27,15,45,10.40
2024,04,27,15,46,10.40
2024,04,27,15,47,10.50
2024,04,27,15,48,10.50
2024,04,27,15,49,10.50
2024,04,27,15,50,10.50
2024,04,27,15,51,10.50
2024,04,27,15,52,10.50
2024,04,27,15,53,10.40
2024,04,27,15,54,10.40
2024,04,27,15,55,10.40
2024,04,27,15,56,10.40
2024,04,27,15,57,10.40
2024,04,27,15,58,10.30
2024,04,27,15,59,10.30
2024,04,27,16,00,10.30
2024,04,27,16,01,10.30
2024,04,27,16,02,10.30
2024,04,27,16,03,10.30
2024,04,27,16,04,10.30
2024,04,27,16,05,10.40
2024,04,27,16,06,10.40
2024,04,27,16,07,10.40
2024,04,27,16,08,10.40
2024,04,27,16,09,10.40
2024,04,27,16,10,10.40
2024,04,27,16,11,10.50
2024,04,27,16,12,10.50
2024,04,27,16,13,10.50
2024,04,27,16,14,10.50
2024,04,27,16,15,10.40
2024,04,27,16,16,10.40
2024,04,27,16,17,10.40
2024,04,27,16,18,10.40
2024,04,27,16,19,10.40
2024,04,27,16,20,10.40
2024,04,27,16,21,10.30
2024,04,27,16,22,10.30
2024,04,27,16,23,10.20
2024,04,27,16,24,10.20
2024,04,27,16,25,10.20
2024,04,27,16,26,10.10
2024,04,27,16,27,10.10
2024,04,27,16,28,10.10
2024,04,27,16,29,10.10
2024,04,27,16,30,10.10
2024,04,27,16,31,10.10
2024,04,27,16,32,10.10
2024,04,27,16,33,10.10
2024,04,27,16,34,10.10
2024,04,27,16,35,10.10
2024,04,27,16,36,10.00
2024,04,27,16,37,10.10
2024,04,27,16,38,10.10
2024,04,27,16,39,10.10
2024,04,27,16,40,10.10
2024,04,27,16,41,10.00
2024,04,27,16,42,10.00
2024,04,27,16,43,10.00
2024,04,27,16,44,10.00
2024,04,27,16,45,9.90
2024,04,27,16,46,9.90
2024,04,27,16,47,9.90
2024,04,27,16,48,9.90
2024,04,27,16,49,9.90
2024,04,27,16,50,9.90
2024,04,27,16,51,9.90
2024,04,27,16,52,9.90
2024,04,27,16,53,10.00
2024,04,27,16,54,10.00
2024,04,27,16,55,9.90
2024,04,27,16,56,10.00
2024,04,27,16,57,10.00
2024,04,27,16,58,10.00
2024,04,27,16,59,10.00
2024,04,27,17,00,10.00
2024,04,27,17,01,10.00
2024,04,27,17,02,10.00
2024,04,27,17,03,10.00
2024,04,27,17,04,10.00
2024,04,27,17,05,10.00
2024,04,27,17,06,10.00
2024,04,27,17,07,10.00
2024,04,27,17,08,10.00
2024,04,27,17,09,9.90
2024,04,27,17,10,9.90
2024,04,27,17,11,9.90
2024,04,27,17,12,9.90
2024,04,27,17,13,9.90
2024,04,27,17,14,9.90
2024,04,27,17,15,9.90
2024,04,27,17,16,9.90
2024,04,27,17,17,9.90
2024,04,27,17,18,9.90
2024,04,27,17,19,9.90
2024,04,27,17,20,9.90
2024,04,27,17,21,10.00
2024,04,27,17,22,10.00
2024,04,27,17,23,10.00
2024,04,27,17,24,10.00
2024,04,27,17,25,10.10
2024,04,27,17,26,10.10
2024,04,27,17,27,10.10
2024,04,27,17,28,10.10
2024,04,27,17,29,10.10
2024,04,27,17,30,10.00
2024,04,27,17,31,9.90
2024,04,27,17,32,9.90
2024,04,27,17,33,9.90
2024,04,27,17,34,9.90
2024,04,27,17,35,9.90
2024,04,27,17,36,9.90
2024,04,27,17,37,9.90
2024,04,27,17,38,9.90
2024,04,27,17,39,9.90
2024,04,27,17,40,9.80
2024,04,27,17,41,9.80
2024,04,27,17,42,9.80
2024,04,27,17,43,9.80
2024,04,27,17,44,9.80
2024,04,27,17,45,9.80
2024,04,27,17,46,9.80
2024,04,27,17,47,9.90
2024,04,27,17,48,9.90
2024,04,27,17,49,9.90
2024,04,27,17,50,9.90
2024,04,27,17,51,10.00
2024,04,27,17,52,10.00
2024,04,27,17,53,10.10
2024,04,27,17,54,10.10
2024,04,27,17,55,10.10
2024,04,27,17,56,10.10
2024,04,27,17,57,10.10
2024,04,27,17,58,10.10
2024,04,27,17,59,10.10
2024,04,27,18,00,10.10
2024,04,27,18,01,10.10
2024,04,27,18,02,10.10
2024,04,27,18,03,10.10
2024,04,27,18,04,10.10
2024,04,27,18,05,10.10
2024,04,27,18,06,10.10
2024,04,27,18,07,10.10
2024,04,27,18,08,10.10
2024,04,27,18,09,10.10
2024,04,27,18,10,10.10
2024,04,27,18,11,10.10
2024,04,27,18,12,10.10
2024,04,27,18,13,10.10
2024,04,27,18,14,10.10
2024,04,27,18,15,10.10
2024,04,27,18,16,10.10
2024,04,27,18,17,10.10
2024,04,27,18,18,10.10
2024,04,27,18,19,10.10
2024,04,27,18,20,10.10
2024,04,27,18,21,10.10
2024,04,27,18,22,10.10
2024,04,27,18,23,10.10
2024,04,27,18,24,10.10
2024,04,27,18,25,10.10
2024,04,27,18,26,10.10
2024,04,27,18,27,10.10
2024,04,27,18,28,10.10
2024,04,27,18,29,10.10
2024,04,27,18,30,10.10
2024,04,27,18,31,10.10
2024,04,27,18,32,10.10
2024,04,27,18,33,10.10
